Wind_Speed
44 43 43 42 42 42 43 43 42 42 42 42 41 40 39 39 39 40 42 44 46 48 49 50 50 51 52 54 55 56 57 57 57 56 56 55 55 55 56 56 56 55 54 53 52 51 51 51 50 50 49 49 50 50 50 49 48 45 42 39 35 32 30 29 28 28 28 29 29 29 28 28 28 28 28 28 27 27 26 26 25 25 25 24 24 24
43 43 42 42 42 42 42 42 42 42 42 41 41 40 39 39 39 40 41 42 44 46 48 49 51 52 53 55 56 56 57 57 56 56 56 55 55 55 56 56 57 57 57 56 54 53 52 51 50 49 48 49 49 50 49 48 46 43 40 36 32 29 28 27 27 28 28 29 29 28 28 28 28 28 28 27 27 27 26 26 25 25 25 24 24 23
43 42 42 42 42 42 43 43 43 42 42 42 42 41 40 40 40 40 41 41 42 44 45 47 48 50 51 52 53 54 54 55 55 55 55 55 55 55 55 56 57 57 57 56 55 54 52 51 49 48 48 48 49 49 48 46 44 40 36 33 30 28 27 27 27 28 28 29 29 28 28 28 28 27 27 27 27 26 26 26 25 25 25 24 24 24
43 43 44 43 43 43 43 43 43 43 43 43 43 42 42 42 42 42 42 42 42 43 44 45 46 47 48 49 50 51 52 52 53 53 53 54 54 54 54 55 55 55 55 54 53 52 50 49 48 47 47 48 48 47 45 43 41 37 33 30 28 27 27 27 27 28 28 29 29 28 28 28 28 27 27 27 27 26 26 26 25 25 25 24 24 24
44 44 45 45 44 44 44 44 44 44 44 44 44 44 44 43 43 43 43 43 43 44 44 45 45 46 47 48 49 49 50 50 51 51 52 52 53 53 53 53 53 53 53 52 51 49 48 47 46 46 47 47 47 45 42 40 37 34 31 29 27 27 27 27 28 28 28 29 29 29 28 28 28 27 27 27 26 26 26 26 25 25 25 25 24 24
45 45 46 46 46 45 45 45 45 45 45 45 45 44 44 44 44 44 44 44 44 44 44 45 45 46 47 48 48 49 49 49 50 50 51 51 52 52 52 52 52 52 51 50 49 47 46 46 46 46 47 46 45 43 40 37 34 31 29 27 27 27 27 27 28 28 28 29 29 29 28 28 28 27 27 27 26 26 26 26 26 25 25 25 24 24
47 47 47 47 47 47 46 46 46 46 46 46 45 45 45 45 44 44 44 44 44 44 45 45 45 46 47 47 48 48 48 49 49 49 50 50 51 51 51 52 51 51 50 49 47 46 45 45 45 46 46 44 43 40 37 34 31 29 28 27 27 27 27 28 28 28 29 29 29 29 29 28 28 27 27 27 26 26 26 26 26 25 25 25 25 24
49 48 48 48 48 48 48 48 47 47 47 47 46 46 46 45 45 45 44 44 44 44 45 45 46 46 47 47 48 48 48 48 48 49 49 50 50 50 51 51 50 50 49 47 46 45 44 44 45 45 44 42 40 37 34 31 29 28 27 27 27 27 28 28 28 29 29 29 29 29 29 28 28 27 27 27 26 26 26 26 26 26 25 25 25 24
51 50 50 49 49 49 49 49 49 48 48 48 48 47 47 46 46 45 45 45 45 45 45 46 46 47 47 47 47 47 47 47 47 48 48 49 49 50 50 49 49 48 47 46 45 44 44 44 44 43 41 39 37 34 32 30 28 27 27 27 27 28 28 29 29 29 29 29 29 29 29 28 28 27 27 27 27 27 27 26 26 26 25 25 25 25
52 52 51 51 51 50 50 50 50 50 49 49 49 48 48 47 47 46 46 46 46 46 46 46 46 47 47 47 47 47 47 47 47 47 48 48 49 49 49 48 48 47 46 45 44 44 43 43 42 41 39 37 34 32 30 29 28 27 27 27 28 28 29 29 29 29 29 29 29 29 28 28 28 27 27 27 27 27 27 27 26 26 25 25 25 25
54 54 53 53 52 52 51 51 51 51 50 50 50 49 49 48 47 47 47 47 46 46 46 46 46 46 47 47 47 46 46 46 46 47 47 47 48 48 48 48 47 46 46 45 44 43 43 42 41 40 38 35 33 31 30 28 28 27 27 28 29 29 29 30 30 30 29 29 29 29 28 28 28 27 27 27 27 27 27 27 27 26 26 25 25 25
56 55 55 54 54 53 53 52 52 52 51 51 51 50 50 49 48 48 48 48 47 47 47 47 47 47 46 46 47 47 46 46 46 46 46 47 47 47 47 47 46 46 45 44 43 43 42 41 40 38 36 34 32 31 29 28 28 28 28 29 29 30 30 30 30 30 30 29 29 28 28 28 27 27 27 27 27 27 27 27 27 26 26 26 26 26
57 57 57 56 55 55 54 53 53 52 52 52 51 51 51 50 50 49 49 49 48 48 48 48 47 47 46 46 46 46 46 46 46 46 46 46 47 47 47 47 46 45 45 44 43 42 41 40 39 37 35 33 32 30 29 29 28 29 29 30 30 31 31 31 31 30 30 29 29 28 28 28 27 27 27 27 27 27 27 27 27 27 26 26 26 25
59 58 58 58 57 56 55 54 54 53 53 52 52 52 52 51 51 50 50 49 49 49 48 48 48 47 47 46 46 46 46 46 46 46 46 46 46 46 46 46 46 45 44 43 42 41 40 39 38 36 35 33 32 30 30 29 29 30 30 31 31 31 31 31 31 30 30 29 29 28 28 28 27 27 27 27 27 27 27 27 27 27 26 26 25 24
60 59 59 59 58 57 56 55 54 54 53 53 53 53 53 52 52 51 51 50 50 49 49 49 48 48 47 47 46 46 46 46 46 46 46 46 46 46 46 46 45 45 44 43 42 41 40 39 37 36 35 33 32 31 30 30 30 31 31 31 32 32 32 31 31 31 30 29 29 28 28 28 27 27 28 28 28 28 27 27 27 27 26 25 24 24
61 60 60 59 59 58 57 56 55 54 54 54 53 53 53 53 52 52 51 51 51 50 50 49 49 48 47 47 46 46 46 46 47 46 46 46 46 46 46 46 45 44 43 42 41 41 40 39 37 36 35 33 32 31 31 31 31 32 32 32 32 32 32 32 31 31 30 29 29 28 28 28 28 28 28 28 28 27 27 27 27 26 25 24 23 24
61 61 60 60 59 58 57 57 56 55 55 54 54 54 54 53 53 53 52 52 51 51 50 50 49 48 48 47 47 46 46 46 47 47 47 47 47 47 46 46 45 44 43 42 41 40 40 39 38 36 35 34 33 32 32 32 32 32 33 33 32 32 32 32 31 31 30 29 29 28 28 28 28 28 28 28 28 27 27 27 27 26 25 24 23 24
62 61 61 60 60 59 58 57 56 56 55 55 55 55 54 54 54 53 53 52 52 51 51 50 49 49 48 47 47 47 46 47 47 48 47 47 47 47 46 46 45 44 43 42 41 40 39 39 38 37 36 34 33 33 33 33 33 33 33 33 33 33 32 32 31 31 30 29 29 28 28 28 28 28 28 28 28 28 27 27 27 26 25 24 24 24
62 62 61 60 60 59 59 58 57 56 56 55 55 55 55 55 54 54 53 53 52 52 51 51 50 49 48 48 48 47 47 47 48 48 48 48 47 47 46 46 45 44 43 42 41 40 40 39 38 37 36 35 34 33 33 33 33 33 33 33 33 33 32 32 31 31 30 29 29 28 28 28 28 28 28 28 28 28 27 27 27 26 26 25 24 24
63 62 61 61 60 60 59 58 57 57 56 56 56 56 56 55 55 54 54 53 53 52 52 51 51 50 49 48 48 48 47 47 48 48 48 48 48 47 46 46 45 44 43 42 41 40 40 39 38 38 37 35 35 34 34 34 34 34 34 34 34 33 33 32 31 31 30 29 29 28 28 28 28 28 28 28 28 28 28 27 27 27 26 26 25 24
63 62 61 61 60 60 59 59 58 57 57 57 56 56 56 55 55 55 54 54 53 53 52 52 51 50 50 49 49 49 48 48 48 48 48 48 48 47 46 45 44 43 43 42 41 40 40 39 39 38 37 36 35 34 34 34 34 34 34 34 34 33 33 32 32 31 30 29 29 29 28 28 28 28 28 28 28 28 28 28 28 27 27 26 25 24
63 62 62 61 61 60 60 59 59 58 58 57 57 56 56 56 55 55 55 54 54 53 53 52 52 51 50 50 49 49 48 48 48 49 49 49 48 47 46 45 44 43 42 42 41 40 40 39 39 38 37 36 35 35 34 34 34 34 34 34 34 33 33 32 32 31 30 30 29 29 28 28 28 28 28 28 28 28 28 28 28 28 27 27 26 25
63 63 62 62 61 61 60 60 59 59 58 58 57 57 57 56 56 56 56 55 55 54 53 53 52 52 51 50 49 49 48 48 48 48 49 49 49 47 46 44 43 43 42 42 41 40 40 39 39 38 37 36 36 35 35 35 35 34 34 34 34 33 33 32 32 31 30 30 29 29 29 28 28 28 28 28 28 28 28 28 28 28 28 27 27 26
63 63 62 62 62 61 61 60 60 59 59 58 58 58 57 57 57 57 57 56 55 55 54 53 53 52 52 51 50 49 49 48 48 49 49 49 49 47 46 44 43 43 42 42 41 41 40 39 39 38 37 37 36 36 35 35 35 34 34 34 33 33 32 32 31 31 30 30 29 29 29 29 29 28 28 29 28 28 28 29 29 29 28 27 27 27
64 63 63 63 62 62 61 61 60 60 59 59 58 58 58 58 58 58 57 57 56 55 54 54 53 53 52 51 50 50 49 49 49 49 49 49 49 47 46 44 43 43 42 42 41 41 40 39 38 38 37 37 36 36 35 35 35 34 34 33 33 33 32 32 31 31 30 30 29 29 29 29 29 29 29 29 29 29 29 29 29 29 28 27 27 28
64 64 63 63 63 62 62 62 61 61 60 60 59 59 59 59 58 58 58 57 56 55 55 54 54 53 52 51 51 50 50 49 49 49 50 50 49 47 46 45 44 43 43 42 41 41 40 39 38 38 37 37 36 36 35 35 35 34 34 33 33 32 32 31 31 31 30 30 29 29 29 29 29 29 29 29 29 29 29 29 29 28 28 27 27 28
65 64 64 64 63 63 63 62 62 61 61 60 60 60 60 59 59 58 58 57 57 56 55 55 54 53 52 52 51 51 50 50 50 50 50 50 49 47 46 45 44 43 43 42 41 40 40 39 38 37 37 36 36 36 35 35 34 34 34 33 33 32 32 31 31 30 30 30 29 29 29 29 29 29 29 29 29 29 29 28 28 28 27 27 27 28
65 65 64 64 64 64 63 63 63 62 62 61 61 61 60 60 59 59 58 58 57 56 56 56 55 54 53 52 52 51 51 51 50 50 50 50 49 47 46 45 44 43 42 42 41 40 39 39 38 37 37 36 36 35 35 35 34 34 33 33 32 32 31 31 30 30 30 30 29 29 29 29 29 29 29 29 28 28 28 28 27 27 27 27 27 28
66 66 65 65 65 64 64 63 63 63 62 62 62 62 61 60 60 59 59 58 57 57 57 56 55 54 53 53 52 52 52 51 51 51 51 50 49 47 45 44 43 43 42 41 41 40 39 38 37 37 36 36 35 35 35 34 34 33 33 32 32 31 31 31 30 30 30 30 29 29 29 29 29 28 28 28 28 28 28 27 27 26 26 26 27 27
67 67 66 66 65 65 65 64 64 63 63 63 62 62 62 61 60 59 59 58 58 57 57 56 55 54 54 53 53 52 52 52 51 51 51 50 48 46 45 44 43 43 42 41 40 39 38 38 37 36 36 35 35 35 34 34 34 33 33 32 32 31 31 30 30 30 30 30 29 29 29 29 28 28 28 27 27 27 27 26 26 26 25 26 26 27
69 68 67 67 66 66 65 65 65 64 64 63 63 62 62 61 60 60 59 59 58 57 57 56 56 55 54 53 53 53 53 52 52 51 51 49 48 46 44 44 43 43 42 41 40 39 38 37 36 36 35 35 35 34 34 34 33 33 32 32 31 31 30 30 30 30 30 30 29 29 29 29 28 28 27 27 26 26 26 26 25 25 25 26 26 26
70 69 68 68 67 67 66 66 65 65 64 64 63 63 62 61 61 60 59 59 58 57 57 56 56 55 54 53 53 53 53 53 52 52 51 49 48 46 44 43 43 42 41 41 40 38 37 36 35 35 35 35 34 34 34 33 33 32 32 31 31 30 30 30 30 30 30 29 29 29 29 28 28 27 27 26 26 26 26 26 25 25 25 26 26 26
71 70 69 68 68 67 67 66 66 65 65 64 63 63 62 61 61 60 59 59 58 57 57 56 56 55 54 54 53 53 53 53 52 52 50 49 47 45 44 43 42 42 41 40 39 38 36 35 35 35 35 34 34 34 33 33 33 32 32 31 31 30 30 30 30 30 30 29 29 29 28 28 28 27 27 26 26 26 26 26 26 26 26 26 26 26
71 70 70 69 68 67 67 66 66 65 65 64 63 63 62 61 60 60 59 59 58 58 57 56 56 55 55 54 54 54 54 53 52 51 50 48 46 44 43 42 42 41 40 39 38 37 36 35 34 34 34 34 34 33 33 33 32 32 31 31 30 30 30 30 30 30 30 29 29 29 28 28 27 27 27 27 27 27 27 27 27 27 26 26 26 26
72 71 70 69 68 67 67 66 66 65 64 64 63 62 61 61 60 60 59 59 58 58 57 57 56 56 55 55 55 55 54 53 52 50 48 46 45 43 42 42 41 40 39 38 37 36 35 34 34 34 34 33 33 33 33 32 32 31 31 31 30 30 30 30 30 30 30 29 29 28 28 27 27 27 27 27 28 28 28 28 28 27 27 26 26 26
71 71 70 69 68 67 66 66 65 64 64 63 62 62 61 60 60 59 59 58 58 57 57 57 56 56 55 55 55 54 53 51 50 48 46 45 43 42 42 41 40 39 39 38 37 36 35 34 34 33 33 33 33 33 32 32 31 31 31 30 30 30 30 30 30 30 29 29 28 28 27 27 27 27 28 28 29 29 29 28 28 27 27 27 27 27
71 70 69 68 67 66 66 65 64 64 63 62 62 61 61 60 60 59 59 58 58 57 57 56 56 55 55 54 54 53 51 49 47 45 44 43 42 42 41 40 39 39 38 37 36 35 34 33 33 33 33 33 32 32 32 31 31 31 30 30 30 30 30 30 30 29 29 28 27 27 26 26 26 27 28 29 29 29 29 29 28 28 28 28 28 28
70 69 68 67 66 65 64 64 63 63 62 61 61 61 60 60 59 59 58 58 57 57 56 55 55 54 54 53 53 52 50 47 44 42 42 41 41 41 40 40 39 38 37 37 36 35 34 33 32 32 32 32 32 32 31 31 31 30 30 29 29 29 30 30 29 29 28 27 26 26 25 25 26 27 28 29 30 30 29 29 29 28 29 29 29 28
69 68 66 65 64 64 63 63 62 62 61 61 60 60 60 60 59 59 58 58 56 55 54 53 52 52 52 52 51 49 47 44 42 41 41 41 41 41 40 39 38 37 37 36 35 34 33 32 32 32 32 32 31 31 31 30 30 29 29 29 29 29 29 29 29 28 27 26 25 25 25 25 26 27 29 30 31 30 30 29 29 29 29 29 29 28
66 65 64 63 63 62 62 61 61 61 60 60 60 60 59 59 59 58 58 56 54 52 50 49 49 49 50 49 48 45 43 41 40 40 40 41 41 40 40 39 38 37 36 35 34 33 32 32 32 32 32 31 31 31 30 30 29 29 29 29 29 29 29 29 28 27 26 25 25 25 24 25 26 27 29 30 31 31 30 30 30 30 30 30 29 28
63 62 62 61 61 60 60 60 60 60 59 59 59 59 59 59 58 57 56 54 51 49 47 46 46 46 46 45 43 41 40 39 39 40 41 41 41 40 39 38 38 37 36 34 33 32 32 32 32 32 31 31 31 30 29 29 29 29 28 29 29 29 29 28 28 27 26 25 24 24 25 25 26 28 29 31 31 31 30 30 30 30 30 29 28 27
60 60 59 59 59 59 59 59 59 58 58 58 58 58 58 58 57 55 53 50 48 46 45 44 43 42 41 40 39 38 38 39 40 40 41 41 40 40 39 38 37 36 35 33 32 32 31 31 31 31 31 30 30 29 29 28 28 28 28 28 28 28 28 27 27 26 25 25 25 25 25 26 27 28 30 30 31 30 30 30 30 30 30 29 28 27
58 58 58 58 58 58 57 57 57 57 57 57 58 57 57 55 53 51 49 46 44 43 42 41 39 38 37 36 36 37 38 40 41 41 41 41 40 39 38 37 36 35 33 32 31 31 31 31 31 30 30 30 29 29 28 28 27 27 27 27 27 26 26 26 26 25 25 25 25 25 26 27 28 29 30 30 30 30 30 30 30 30 29 29 28 27
56 56 56 56 56 56 56 56 56 56 56 56 56 55 53 51 48 46 44 43 42 40 39 37 36 35 35 36 37 39 40 41 42 42 41 41 40 39 37 36 34 33 32 31 31 31 31 30 30 30 30 29 29 28 28 27 27 26 26 26 25 25 25 25 26 26 26 26 26 26 27 28 29 29 30 30 31 31 31 31 30 30 29 29 28 27
55 55 55 54 54 54 55 55 55 55 55 54 53 51 48 46 44 43 42 40 39 38 37 35 34 35 36 38 40 42 43 43 43 42 41 40 39 38 36 34 33 31 31 30 30 30 30 30 30 30 29 29 29 28 27 26 26 25 25 25 25 25 25 25 26 26 26 26 27 27 28 29 29 30 30 31 31 31 31 31 30 30 29 28 28 27
53 53 53 53 53 53 54 54 54 53 53 51 49 46 44 43 42 41 40 39 38 37 36 35 36 38 40 42 44 45 45 44 43 42 40 39 38 36 35 33 31 30 30 30 30 30 30 30 30 30 29 29 28 27 27 26 25 25 25 25 25 25 25 25 26 26 26 27 28 28 29 30 30 31 31 31 31 31 31 31 30 29 29 28 28 27
52 52 52 52 52 52 53 52 52 51 49 47 45 44 43 43 42 40 39 39 38 38 37 38 40 43 45 46 47 46 45 44 42 41 39 38 36 34 33 31 30 30 30 30 30 30 30 30 30 29 29 28 27 27 26 26 25 25 25 25 25 25 25 26 26 26 27 27 28 29 30 30 31 31 31 31 31 31 31 30 30 29 28 28 27 27
51 50 51 51 51 51 51 50 49 48 46 44 44 44 44 42 40 39 40 40 40 40 41 44 47 48 49 48 47 46 45 43 41 40 38 36 34 33 31 30 30 30 30 30 30 30 30 30 29 29 28 27 27 26 26 26 26 26 26 26 26 26 26 27 27 27 28 28 29 29 30 31 31 31 31 31 31 31 30 30 29 28 28 27 27 27
49 49 49 49 49 48 48 47 46 44 44 44 44 44 42 41 40 41 42 42 43 44 47 50 52 51 50 48 47 45 43 42 40 38 36 34 33 32 31 30 30 30 30 30 30 30 30 29 29 28 28 27 26 26 25 26 26 26 27 27 27 27 27 27 28 28 28 29 29 30 30 31 31 31 31 31 30 30 29 29 28 28 27 27 27 27
47 47 47 46 45 44 43 43 42 43 43 44 43 42 41 41 42 43 45 46 47 50 52 53 52 51 49 47 45 43 42 40 38 36 35 33 32 31 30 30 30 30 30 30 30 29 29 28 28 28 27 26 25 25 26 26 27 27 27 28 28 28 28 28 28 29 29 29 29 30 30 30 30 30 30 29 29 29 28 28 27 27 27 27 27 27
44 44 43 41 40 39 39 40 41 42 43 42 41 41 42 43 45 47 48 49 51 52 52 52 50 48 46 44 43 41 40 38 36 34 33 32 31 31 31 31 30 30 30 29 29 29 28 27 27 27 26 26 25 25 26 27 27 27 28 28 28 28 28 29 29 29 29 29 29 30 30 30 29 29 29 28 28 28 27 27 27 27 27 27 27 27
Wind_Direction
277 277 278 278 278 278 279 279 280 281 282 283 283 284 283 282 280 278 277 277 278 279 280 281 282 283 284 285 286 288 289 290 291 291 291 291 290 289 288 287 286 286 286 286 285 285 284 284 284 284 284 284 284 284 283 282 281 279 277 275 273 272 273 274 276 278 279 279 279 280 280 280 280 281 281 280 280 279 278 276 275 274 274 273 273 274
276 277 277 277 278 278 279 279 280 281 281 282 283 283 282 282 280 278 277 277 277 277 278 279 280 282 283 284 285 286 288 289 289 290 289 289 288 287 286 285 284 284 285 286 286 285 285 284 284 284 284 283 282 281 280 279 278 276 274 272 270 270 272 274 276 277 278 278 278 278 278 278 278 278 278 278 277 276 275 274 273 272 272 272 272 272
275 276 276 277 277 278 278 279 280 280 281 281 282 282 282 282 281 280 278 278 278 278 278 279 280 281 282 283 284 285 286 287 287 288 288 287 287 286 285 285 284 285 285 286 286 286 286 285 285 284 283 282 281 279 278 276 274 272 270 269 269 270 273 275 276 277 277 277 277 277 277 277 277 276 276 276 275 274 273 272 271 271 271 271 271 271
274 275 275 276 277 277 278 279 279 280 280 281 282 282 282 282 281 281 280 280 280 280 280 281 281 281 282 283 284 284 285 286 286 287 287 287 287 286 286 286 286 286 286 286 286 286 286 285 285 284 283 281 279 277 275 273 271 269 267 267 269 271 273 275 276 277 277 277 277 277 276 276 276 275 275 275 274 273 272 271 270 270 270 270 270 270
273 273 274 275 276 276 277 277 278 279 279 280 281 281 282 282 282 282 282 282 282 282 282 282 282 283 283 283 284 284 285 285 286 286 287 287 287 287 287 287 287 287 287 287 287 286 286 285 285 283 282 279 277 274 271 269 267 266 265 267 269 272 274 275 276 276 276 276 276 276 275 275 275 275 274 274 273 272 271 270 269 269 269 269 269 269
272 272 273 274 274 275 276 276 276 277 278 278 279 279 280 281 282 282 282 282 282 282 282 283 283 283 283 284 284 285 285 285 286 286 286 286 287 287 287 287 287 287 287 287 287 287 286 286 284 282 280 277 275 272 269 266 265 264 266 268 271 273 274 275 276 276 275 275 275 275 275 274 274 274 273 273 272 271 270 269 269 268 268 268 268 268
272 272 272 273 273 274 274 274 275 275 276 276 277 278 278 279 280 280 281 281 281 282 282 282 283 283 284 284 284 285 285 285 285 286 286 286 286 286 287 287 287 287 288 288 288 287 286 285 283 281 278 275 272 269 266 264 264 265 267 269 272 273 274 275 275 275 275 274 274 274 274 274 274 273 273 272 271 270 269 268 268 268 268 267 267 267
271 271 271 271 272 272 273 273 273 274 274 275 276 276 277 278 279 279 280 280 281 281 281 282 283 283 284 284 285 285 285 285 285 285 285 285 286 286 286 287 287 287 287 287 287 286 286 284 282 279 276 273 269 266 264 263 264 266 268 271 273 274 274 274 274 274 274 274 273 273 273 273 273 272 272 271 270 269 268 267 267 267 267 267 266 266
270 270 270 270 271 271 272 272 273 273 273 274 274 275 276 277 278 278 279 279 279 280 281 282 283 284 285 285 285 285 285 285 285 285 285 285 285 286 286 286 287 287 287 286 286 285 284 282 280 277 274 271 267 265 264 264 265 268 270 272 273 274 274 274 274 274 273 273 272 272 272 272 272 271 270 270 269 268 267 267 266 266 266 266 265 265
270 270 270 270 270 270 270 271 272 272 272 273 273 274 275 276 276 277 277 277 278 279 280 281 282 284 285 285 285 285 285 285 284 284 284 284 285 285 286 286 286 286 285 285 284 284 282 281 278 275 272 269 266 264 264 265 267 269 271 273 274 274 274 274 274 273 273 272 272 271 271 271 271 270 269 268 267 267 266 266 266 266 266 265 265 264
270 269 269 269 269 269 269 270 271 271 271 272 272 273 274 274 275 275 276 276 277 278 279 280 282 283 284 285 285 284 284 283 283 283 283 283 284 284 285 285 285 285 284 284 283 282 281 279 276 273 270 267 265 265 265 267 269 271 272 273 274 274 274 274 273 273 272 272 271 271 270 270 269 269 268 267 266 266 265 265 265 265 265 265 264 264
269 269 269 269 269 269 269 269 270 270 270 271 271 272 272 273 273 274 274 275 276 277 278 279 281 282 283 283 284 284 283 282 282 282 282 282 282 283 283 284 283 283 282 282 281 280 279 277 275 271 269 266 265 265 266 268 270 272 273 273 274 274 274 273 273 272 272 271 271 270 270 269 268 267 267 266 265 264 264 264 264 264 264 264 264 264
269 268 268 268 268 268 268 268 269 269 269 270 270 271 272 272 272 273 273 274 275 276 277 278 279 281 282 282 282 282 282 281 281 280 280 280 281 281 282 282 282 281 281 280 279 278 277 275 273 270 267 266 265 266 268 269 271 272 273 273 273 273 273 273 272 272 271 271 270 270 269 268 267 266 265 264 263 263 263 263 263 263 263 262 263 266
268 268 268 268 268 268 268 268 268 268 268 269 269 270 270 271 271 272 272 273 274 274 276 277 278 279 280 281 281 281 280 280 279 279 279 279 279 279 280 280 279 279 279 278 277 276 275 273 271 268 266 266 266 267 268 270 271 272 272 273 273 273 273 272 272 271 271 270 270 269 268 267 266 265 264 263 262 262 262 262 262 261 261 261 264 267
267 267 267 267 267 267 267 267 267 267 267 268 268 268 269 270 270 271 271 272 273 273 274 275 277 278 279 280 280 280 279 278 278 277 277 277 277 277 277 278 277 277 277 276 275 274 273 271 269 267 266 265 266 267 269 270 271 271 272 272 272 272 272 272 272 271 271 270 269 269 268 266 265 264 262 261 261 260 260 260 260 259 259 260 263 268
267 266 266 266 266 266 266 266 266 266 266 267 267 267 268 268 269 270 270 271 272 272 273 274 275 277 278 279 279 278 277 277 276 275 275 275 275 275 275 276 275 275 275 274 273 272 271 269 268 266 265 265 266 267 268 269 270 271 272 272 272 272 272 272 272 271 271 270 269 268 267 265 264 262 261 260 259 259 259 259 258 257 257 258 262 266
266 266 266 266 266 266 266 265 265 265 265 266 266 266 267 267 268 269 269 270 271 271 272 273 274 275 277 278 277 276 275 275 274 274 273 273 273 274 274 274 274 273 273 272 271 270 269 267 266 265 265 265 266 267 268 269 270 271 272 272 272 272 272 272 272 271 271 270 269 267 266 264 262 261 260 259 258 257 257 257 256 255 255 257 260 262
266 266 266 265 265 265 265 265 264 264 264 265 265 265 266 266 267 268 268 269 270 270 271 272 273 274 275 275 275 275 274 273 272 272 272 272 272 272 272 273 272 272 271 270 269 268 267 266 265 264 264 264 265 266 268 269 270 271 272 273 273 273 273 272 272 271 270 269 268 266 265 263 261 260 258 257 257 256 256 255 254 253 253 255 257 258
265 265 265 265 265 264 264 264 264 264 264 264 264 264 265 265 266 267 267 268 269 269 270 271 272 273 273 273 274 273 272 271 270 270 270 270 271 271 271 271 271 271 270 269 268 266 265 264 264 263 263 264 265 266 268 270 271 273 273 274 274 273 273 272 271 271 270 268 267 265 263 262 260 258 257 256 255 255 254 253 252 252 251 252 253 253
265 265 264 264 264 264 263 263 263 263 263 263 263 264 264 265 266 266 267 267 268 269 269 270 271 271 272 272 272 271 270 269 269 269 269 269 269 270 270 270 270 270 269 267 266 265 264 263 263 263 263 264 265 267 268 270 272 273 274 274 274 273 272 272 271 270 269 267 266 264 262 260 259 257 256 255 254 253 253 252 251 250 250 250 250 249
265 264 264 264 263 263 263 263 262 262 262 263 263 263 264 264 265 265 266 266 267 267 268 269 269 270 271 270 270 270 269 268 268 268 268 268 268 268 269 269 269 268 267 266 265 263 262 262 262 262 263 264 265 267 268 270 272 273 273 273 273 272 271 271 270 269 268 266 264 263 261 259 257 256 255 254 253 252 251 250 250 249 249 249 248 246
264 264 264 263 263 262 262 262 262 262 262 262 262 263 263 264 264 264 265 265 266 266 267 268 268 269 270 269 269 269 269 267 267 266 266 266 267 267 268 268 267 266 265 264 263 262 261 261 261 262 263 264 265 267 269 270 271 272 272 272 271 271 270 269 269 267 266 265 263 261 259 258 256 255 254 253 252 251 250 249 249 248 249 248 247 245
264 264 263 263 262 262 262 261 261 261 261 261 262 262 262 263 263 263 264 264 265 266 266 267 268 268 268 268 268 268 267 266 265 265 265 265 265 266 266 266 265 264 263 262 261 260 260 260 260 261 262 264 265 267 269 270 271 271 271 270 270 269 269 268 267 266 264 263 261 259 257 256 255 254 253 252 251 250 249 248 248 248 248 248 247 245
263 263 262 262 262 261 261 261 261 261 261 261 261 261 262 262 262 263 263 264 264 265 266 266 267 267 267 267 267 267 266 265 264 263 263 263 264 264 264 264 263 262 261 260 259 259 258 259 259 261 262 263 265 267 268 270 270 270 270 269 269 268 267 266 265 264 263 261 259 257 256 254 253 253 252 251 250 249 248 248 248 248 249 249 248 247
262 262 261 261 261 261 260 260 260 260 260 261 261 261 261 261 261 262 263 263 264 264 265 265 265 265 265 266 265 265 264 263 262 261 261 262 262 262 262 262 261 260 259 258 257 257 257 258 258 260 261 263 265 267 268 269 270 269 269 268 267 267 266 265 264 262 261 259 257 256 254 253 252 251 251 250 249 248 248 248 248 249 250 250 250 250
261 261 260 260 260 260 260 260 260 260 260 260 260 260 260 260 261 261 262 262 263 263 264 263 263 264 264 264 264 263 263 262 260 259 259 260 260 261 260 260 259 258 257 256 256 255 256 256 258 259 261 263 265 267 268 269 269 268 268 267 266 265 264 263 262 260 259 257 255 254 253 252 251 250 250 249 249 248 248 248 249 250 250 251 252 252
260 260 259 259 259 259 259 259 259 259 259 259 259 259 260 260 260 261 261 262 262 262 262 262 263 263 263 263 262 262 261 260 259 258 257 258 259 259 259 258 257 256 255 254 254 254 254 255 257 259 261 263 265 266 267 268 268 268 267 266 265 264 263 262 260 258 257 255 254 252 251 251 250 249 249 248 248 248 248 248 249 250 251 252 253 253
260 259 258 258 258 258 258 258 258 258 258 258 259 259 259 259 259 260 261 261 261 261 261 261 261 262 262 261 261 260 260 258 257 256 256 256 257 258 257 257 256 255 254 253 253 253 253 255 256 258 261 263 265 266 267 267 267 266 266 265 264 263 261 260 258 257 255 254 252 251 251 250 249 249 248 248 247 248 248 249 249 250 251 252 253 252
259 258 258 257 257 257 257 257 257 257 257 257 258 258 258 258 259 259 260 260 260 260 260 260 261 261 261 260 260 259 258 257 256 255 255 255 256 256 256 255 254 253 252 252 251 252 253 254 256 259 261 263 265 266 266 266 266 265 265 264 263 261 260 258 257 255 254 252 251 250 250 249 248 247 247 247 247 247 248 249 249 249 250 251 252 249
258 258 257 257 256 256 256 256 256 256 256 257 257 257 258 258 258 259 259 259 259 259 259 260 260 259 259 259 258 257 256 255 254 253 253 254 255 254 254 253 252 251 250 250 250 251 252 254 256 258 261 263 264 265 265 265 264 264 263 262 261 260 258 256 255 253 252 251 250 249 249 248 247 246 246 246 247 247 248 248 247 248 248 250 249 245
257 257 256 256 256 255 255 255 255 255 256 256 256 256 257 257 257 258 258 258 258 259 259 259 259 258 258 257 256 255 254 254 253 252 252 252 253 252 252 251 250 249 248 248 249 250 251 253 256 258 260 262 263 263 263 263 263 262 261 260 259 257 256 254 253 252 251 250 249 248 248 247 246 245 245 245 246 246 246 246 245 245 246 247 245 240
256 256 255 255 255 255 255 254 254 255 255 255 255 255 256 256 257 257 257 258 258 258 258 258 258 257 257 256 255 254 253 252 251 250 250 250 250 250 249 248 248 247 247 247 248 249 251 254 256 258 259 260 261 261 261 261 261 260 259 258 256 255 254 253 252 250 250 249 248 247 247 246 244 243 243 243 243 243 243 243 242 243 243 242 239 233
255 255 254 254 254 254 253 253 253 254 254 254 254 255 255 255 256 256 256 257 257 257 257 256 256 256 256 254 253 251 250 250 249 249 249 249 249 248 248 247 246 246 245 246 247 249 251 254 256 257 258 259 259 259 260 260 259 258 257 256 254 253 252 251 250 249 248 248 247 247 246 244 243 241 240 240 239 239 239 239 239 239 239 237 232 227
254 253 253 253 252 252 252 252 252 252 253 253 253 254 254 254 255 255 255 256 256 256 255 255 255 255 254 252 251 249 248 248 248 248 248 248 247 247 246 245 244 244 244 245 247 249 251 253 255 256 257 257 257 258 258 257 257 256 255 253 252 251 250 250 249 248 247 247 246 245 244 243 241 240 239 237 236 235 235 235 235 235 234 230 225 219
252 252 252 251 251 251 251 251 251 251 251 252 252 252 253 253 254 254 254 255 255 255 254 254 254 253 252 251 249 248 247 246 247 247 247 247 246 245 244 243 243 243 243 244 246 248 251 252 254 255 255 256 256 256 256 255 254 253 252 251 250 250 249 248 248 247 246 246 245 244 243 242 241 239 237 235 233 232 232 232 232 231 228 224 218 213
250 250 250 250 250 250 250 250 250 250 250 250 251 251 252 252 252 253 253 253 254 253 253 253 252 252 251 249 248 246 246 245 246 246 246 246 245 244 242 241 241 241 242 244 246 248 250 252 253 253 254 254 254 254 254 253 252 251 250 249 249 248 248 247 246 246 245 244 243 242 241 241 240 238 236 234 231 230 230 230 229 226 222 217 212 208
248 248 248 248 248 248 248 248 248 248 249 249 250 250 250 251 251 252 252 252 252 252 252 252 251 250 249 247 246 244 244 244 244 245 245 244 243 242 241 240 240 240 242 244 246 248 249 250 251 252 252 253 252 252 251 250 249 248 248 247 247 247 246 246 245 244 243 242 241 240 240 239 239 237 235 232 230 229 228 228 226 222 217 212 207 205
247 247 247 247 246 246 246 246 247 247 247 248 248 249 249 250 250 251 251 251 251 251 250 250 249 248 247 245 243 242 242 243 243 243 242 241 240 240 239 238 239 240 241 243 245 247 248 249 250 250 251 251 250 249 248 248 247 246 246 246 246 245 245 244 244 243 242 240 239 238 238 238 237 236 234 231 228 227 226 225 222 218 212 208 204 202
245 245 245 244 244 244 244 245 245 245 246 247 247 248 248 249 249 249 250 250 250 249 249 248 247 245 244 243 241 240 240 241 241 241 240 239 238 238 237 237 238 239 241 243 244 246 247 248 248 248 248 248 247 246 246 245 245 245 245 245 244 244 243 242 242 241 239 238 237 236 236 237 236 234 232 229 227 225 223 221 218 213 208 204 202 202
243 243 242 242 242 242 243 243 244 244 245 245 246 247 247 248 248 248 248 248 247 246 244 243 243 242 241 240 239 238 238 238 238 238 237 237 236 236 236 236 237 239 240 242 243 244 245 246 246 246 246 245 244 244 243 243 243 244 244 243 242 242 241 240 239 238 236 235 235 235 235 235 235 233 230 227 225 222 219 216 212 209 205 203 202 202
241 240 240 240 240 241 241 242 242 243 244 244 245 246 246 247 247 248 247 246 243 239 237 237 238 238 237 236 235 235 235 235 235 235 235 235 235 235 235 236 237 238 240 241 242 243 243 244 244 244 243 242 242 241 241 241 242 242 241 240 239 238 237 236 235 234 233 233 233 233 233 233 232 230 227 224 221 218 215 211 208 205 203 202 202 203
238 238 238 238 238 239 239 240 241 242 243 243 244 245 246 246 247 246 244 240 234 231 229 231 232 233 232 232 231 231 232 233 233 234 234 234 234 234 235 236 237 238 239 240 240 241 241 241 241 241 240 240 239 239 239 239 239 239 238 237 236 234 233 232 231 231 230 230 231 231 231 230 228 226 223 220 217 214 210 207 204 203 202 202 203 205
236 236 236 236 237 237 238 239 240 241 242 242 243 245 246 246 245 242 236 229 224 222 223 225 226 227 226 227 227 229 230 232 232 233 233 233 233 233 234 235 236 237 238 238 238 239 239 239 239 238 238 238 237 237 236 236 236 235 234 232 231 230 229 229 228 228 228 229 229 229 228 226 224 221 219 216 212 209 206 204 203 202 203 203 204 206
234 234 234 235 235 236 237 238 239 240 241 242 243 244 245 243 238 231 223 217 215 215 217 219 220 220 221 223 226 228 230 231 232 232 232 232 232 233 234 235 235 236 236 236 236 236 236 236 235 235 235 235 235 234 233 232 231 230 229 228 227 227 227 227 227 226 227 227 226 225 223 221 218 216 214 211 208 205 203 202 202 202 203 205 206 208
233 233 233 234 234 235 236 237 238 239 240 242 243 243 240 233 224 216 210 208 209 211 212 212 213 216 219 223 226 229 230 231 231 231 231 231 232 232 233 233 233 233 233 233 233 233 233 233 232 232 233 232 232 231 230 228 228 227 226 225 224 224 225 225 225 225 225 224 223 221 219 216 213 211 209 207 205 203 202 202 202 203 204 206 207 209
231 231 232 232 233 234 235 236 237 239 240 241 240 236 228 218 209 204 203 204 206 207 208 209 212 217 221 225 227 229 230 230 230 230 230 230 231 232 232 231 231 230 230 231 231 231 230 230 230 230 230 229 229 227 226 225 224 224 224 224 224 224 223 224 224 224 223 222 219 216 214 211 209 207 205 204 204 203 202 202 203 204 205 207 209 212
230 230 230 231 232 233 234 235 237 239 239 237 232 223 213 205 201 199 201 202 203 204 206 210 215 220 223 225 227 227 228 228 228 228 229 229 230 230 230 229 228 228 228 228 228 228 228 228 228 228 228 226 225 223 222 222 222 223 224 224 223 223 223 222 222 221 220 217 214 211 209 207 205 204 204 204 204 203 203 204 204 205 207 209 212 214
228 229 229 230 231 232 233 235 236 237 235 229 220 210 203 199 197 198 199 200 201 204 209 214 219 222 224 224 225 225 225 226 226 227 227 227 228 227 227 226 225 225 225 225 226 226 226 227 227 226 225 223 221 220 219 219 220 221 222 222 222 221 220 219 218 217 215 212 209 207 206 205 204 203 204 204 204 205 205 205 206 207 209 212 215 217
227 227 228 229 230 232 233 234 234 232 227 218 210 203 199 195 195 196 198 200 203 208 213 217 220 222 222 222 222 223 223 224 224 225 225 225 225 224 224 223 223 222 223 223 223 224 224 224 224 223 222 220 219 219 218 218 219 219 219 219 218 217 216 215 213 212 210 207 206 205 204 204 204 204 204 205 206 206 207 208 209 210 212 215 218 219
226 226 227 228 230 231 232 232 229 224 217 209 203 198 194 192 193 195 199 203 208 212 215 218 219 220 220 219 219 220 221 222 222 223 223 223 222 221 220 220 219 220 220 220 221 221 221 220 220 219 217 216 216 217 219 219 219 218 216 215 214 213 212 210 209 207 206 205 204 204 204 204 205 205 206 206 207 208 209 210 211 213 215 218 220 221
225 225 226 227 228 229 228 227 222 216 208 202 196 191 189 190 194 198 203 207 211 213 214 216 217 217 216 216 217 218 219 220 220 220 220 220 220 219 218 217 217 217 217 218 218 218 217 216 216 215 215 214 213 215 218 219 218 216 214 212 210 209 207 206 205 204 204 204 204 204 205 205 206 207 207 208 209 210 211 213 215 217 218 220 222 222
Height
5665 5665 5664 5664 5664 5664 5663 5663 5663 5663 5662 5662 5662 5662 5662 5662 5662 5662 5662 5663 5663 5663 5663 5662 5662 5662 5662 5662 5661 5660 5660 5659 5658 5658 5658 5657 5657 5657 5656 5656 5656 5655 5655 5654 5654 5653 5653 5652 5652 5652 5651 5650 5649 5648 5647 5646 5645 5645 5644 5644 5644 5644 5645 5645 5645 5645 5645 5645 5645 5645 5645 5645 5645 5645 5645 5645 5644 5644 5643 5643 5643 5643 5643 5643 5643 5643
5662 5661 5660 5660 5660 5660 5659 5659 5659 5659 5659 5658 5658 5658 5658 5658 5658 5658 5659 5659 5660 5660 5659 5659 5659 5659 5658 5658 5657 5657 5656 5655 5655 5654 5654 5653 5653 5653 5652 5652 5652 5651 5651 5650 5650 5649 5649 5648 5648 5648 5647 5646 5645 5644 5643 5643 5642 5642 5641 5641 5641 5641 5642 5642 5642 5642 5642 5642 5642 5642 5642 5642 5642 5642 5642 5642 5642 5642 5641 5641 5641 5641 5641 5641 5641 5641
5658 5657 5657 5657 5657 5656 5656 5655 5655 5655 5655 5654 5654 5654 5654 5654 5654 5655 5655 5655 5655 5655 5655 5655 5655 5655 5654 5654 5654 5653 5652 5652 5651 5651 5650 5650 5649 5649 5648 5648 5647 5647 5647 5646 5646 5645 5645 5644 5644 5644 5643 5642 5642 5641 5640 5639 5639 5638 5638 5638 5638 5638 5639 5639 5639 5640 5640 5640 5639 5640 5640 5640 5640 5640 5640 5640 5640 5639 5639 5639 5639 5639 5639 5639 5639 5639
5654 5653 5652 5652 5652 5652 5652 5652 5651 5651 5650 5650 5650 5650 5650 5650 5650 5650 5651 5651 5651 5651 5651 5651 5651 5651 5650 5650 5650 5649 5649 5648 5647 5647 5646 5646 5645 5644 5644 5644 5643 5643 5642 5642 5642 5642 5641 5641 5640 5640 5639 5639 5638 5637 5637 5636 5635 5635 5635 5635 5635 5636 5636 5637 5637 5637 5637 5637 5637 5637 5637 5637 5637 5638 5637 5637 5637 5637 5637 5637 5637 5637 5637 5637 5637 5637
5650 5649 5648 5648 5648 5648 5648 5647 5647 5647 5646 5646 5646 5646 5646 5646 5646 5646 5646 5647 5647 5647 5647 5647 5647 5647 5647 5646 5646 5645 5645 5644 5644 5643 5642 5642 5641 5641 5640 5640 5639 5639 5639 5638 5638 5637 5637 5637 5637 5636 5636 5635 5634 5634 5634 5633 5632 5632 5632 5632 5633 5633 5633 5634 5634 5634 5634 5634 5634 5634 5634 5635 5635 5635 5635 5635 5635 5635 5634 5634 5634 5634 5634 5634 5634 5634
5646 5646 5645 5644 5644 5644 5644 5643 5643 5643 5643 5642 5642 5642 5642 5642 5642 5642 5642 5642 5642 5643 5643 5643 5643 5643 5642 5642 5642 5641 5641 5641 5640 5640 5639 5638 5637 5637 5636 5636 5636 5635 5635 5634 5634 5634 5633 5633 5633 5632 5632 5632 5631 5631 5630 5630 5629 5629 5629 5630 5630 5631 5631 5631 5632 5632 5632 5632 5632 5632 5632 5632 5632 5632 5632 5632 5632 5632 5632 5632 5632 5632 5632 5632 5632 5632
5642 5642 5641 5641 5640 5640 5639 5639 5638 5638 5639 5638 5638 5638 5638 5638 5638 5638 5638 5638 5638 5638 5638 5639 5639 5639 5638 5638 5637 5637 5637 5637 5636 5636 5635 5634 5634 5633 5633 5632 5632 5632 5631 5631 5631 5630 5630 5630 5630 5629 5629 5628 5628 5627 5627 5627 5627 5627 5627 5627 5627 5628 5628 5629 5629 5629 5629 5629 5629 5629 5629 5629 5629 5629 5630 5630 5630 5630 5630 5630 5630 5630 5630 5630 5630 5630
5637 5637 5637 5637 5637 5636 5635 5635 5634 5634 5635 5634 5634 5634 5634 5634 5634 5634 5634 5634 5634 5634 5634 5634 5634 5634 5634 5634 5634 5633 5633 5633 5632 5632 5632 5631 5630 5630 5629 5629 5628 5628 5627 5627 5627 5627 5627 5627 5626 5626 5626 5625 5625 5624 5624 5624 5624 5624 5624 5625 5625 5626 5626 5626 5627 5627 5627 5627 5627 5626 5627 5627 5627 5627 5627 5627 5627 5627 5627 5627 5627 5627 5627 5628 5628 5628
5632 5632 5633 5633 5633 5632 5632 5631 5630 5630 5630 5630 5629 5629 5629 5630 5630 5630 5630 5630 5630 5630 5630 5630 5630 5630 5630 5630 5630 5629 5629 5629 5629 5628 5628 5627 5627 5626 5626 5625 5625 5624 5624 5624 5624 5624 5624 5623 5623 5623 5622 5622 5622 5621 5621 5621 5621 5622 5622 5622 5623 5623 5623 5624 5624 5624 5624 5624 5624 5624 5624 5624 5624 5624 5624 5624 5624 5625 5625 5625 5625 5625 5625 5625 5626 5626
5628 5628 5628 5628 5628 5628 5628 5627 5626 5626 5626 5625 5625 5625 5625 5625 5625 5625 5625 5625 5625 5625 5625 5625 5626 5626 5625 5625 5625 5625 5625 5625 5625 5624 5624 5623 5623 5622 5622 5622 5621 5621 5621 5621 5621 5621 5620 5620 5620 5620 5619 5619 5619 5618 5618 5619 5619 5619 5619 5620 5620 5621 5621 5621 5621 5621 5621 5621 5621 5621 5621 5622 5622 5622 5622 5622 5622 5622 5622 5622 5622 5622 5623 5623 5623 5623
5622 5623 5623 5623 5624 5624 5624 5623 5622 5622 5622 5621 5621 5621 5621 5621 5621 5621 5620 5620 5621 5621 5621 5621 5621 5622 5621 5621 5621 5621 5621 5621 5621 5621 5620 5620 5619 5619 5618 5618 5617 5617 5617 5617 5617 5617 5617 5617 5617 5617 5616 5616 5616 5616 5616 5616 5617 5617 5617 5617 5618 5618 5618 5618 5618 5618 5619 5619 5619 5619 5619 5619 5619 5619 5619 5619 5619 5619 5620 5620 5620 5620 5620 5621 5621 5621
5617 5617 5618 5618 5618 5619 5619 5619 5619 5618 5617 5617 5617 5616 5616 5617 5617 5617 5616 5615 5616 5616 5617 5617 5617 5617 5617 5617 5617 5617 5617 5617 5617 5617 5617 5617 5616 5616 5615 5615 5614 5614 5614 5614 5614 5614 5614 5614 5614 5613 5613 5613 5613 5613 5613 5614 5614 5614 5615 5615 5615 5615 5616 5616 5616 5616 5616 5616 5616 5616 5616 5616 5616 5616 5617 5617 5617 5617 5617 5617 5617 5618 5618 5618 5619 5619
5612 5612 5612 5613 5613 5614 5614 5614 5614 5614 5613 5613 5612 5612 5611 5612 5612 5612 5612 5611 5612 5612 5612 5612 5612 5613 5613 5613 5613 5613 5613 5612 5612 5613 5613 5612 5612 5612 5612 5611 5611 5611 5611 5611 5611 5611 5611 5611 5611 5611 5611 5610 5610 5611 5611 5611 5612 5612 5612 5612 5612 5612 5613 5613 5613 5613 5613 5613 5613 5613 5613 5613 5614 5614 5614 5614 5614 5614 5615 5615 5615 5615 5616 5616 5616 5617
5607 5607 5607 5607 5608 5608 5609 5609 5609 5609 5608 5608 5608 5607 5607 5607 5607 5607 5607 5607 5607 5608 5608 5608 5608 5608 5609 5609 5609 5609 5609 5609 5609 5609 5609 5609 5609 5608 5608 5607 5607 5607 5607 5607 5607 5607 5607 5607 5607 5607 5607 5607 5608 5608 5608 5609 5609 5609 5609 5610 5610 5610 5610 5610 5610 5610 5610 5611 5611 5611 5611 5611 5611 5611 5611 5612 5612 5612 5612 5612 5613 5613 5613 5614 5614 5614
5601 5602 5602 5602 5602 5603 5604 5604 5604 5604 5603 5603 5603 5603 5602 5602 5602 5602 5602 5602 5602 5603 5604 5603 5604 5604 5605 5605 5606 5605 5605 5605 5605 5605 5605 5605 5605 5605 5605 5604 5603 5603 5604 5604 5604 5604 5604 5604 5604 5604 5604 5605 5605 5605 5606 5606 5606 5607 5607 5607 5607 5607 5607 5607 5607 5607 5607 5608 5608 5608 5608 5608 5608 5608 5609 5609 5609 5609 5610 5610 5610 5611 5611 5612 5612 5612
5596 5596 5596 5596 5597 5598 5598 5599 5599 5599 5598 5599 5598 5598 5597 5597 5597 5598 5598 5598 5598 5599 5599 5599 5599 5600 5601 5601 5602 5602 5601 5601 5600 5601 5601 5601 5601 5601 5602 5601 5600 5600 5601 5601 5601 5601 5601 5601 5601 5601 5602 5602 5602 5602 5603 5603 5603 5604 5604 5604 5604 5604 5604 5604 5604 5605 5605 5605 5605 5605 5605 5606 5606 5606 5606 5606 5607 5607 5607 5608 5608 5609 5609 5610 5610 5610
5590 5590 5591 5591 5592 5592 5593 5593 5594 5594 5594 5593 5593 5593 5593 5593 5593 5593 5593 5593 5593 5594 5594 5595 5595 5596 5596 5597 5597 5597 5598 5597 5596 5596 5597 5597 5597 5597 5598 5597 5597 5597 5597 5598 5598 5598 5598 5597 5598 5598 5598 5599 5599 5600 5600 5600 5601 5601 5601 5601 5601 5601 5601 5601 5602 5602 5602 5602 5602 5602 5602 5603 5603 5603 5603 5604 5604 5605 5605 5605 5606 5607 5607 5607 5608 5608
5584 5585 5585 5586 5586 5587 5587 5588 5588 5588 5589 5588 5588 5588 5588 5588 5588 5588 5588 5588 5589 5589 5589 5590 5591 5591 5592 5592 5592 5593 5593 5593 5592 5591 5592 5592 5592 5593 5594 5594 5593 5593 5594 5594 5594 5594 5594 5594 5594 5595 5595 5596 5596 5597 5597 5597 5597 5597 5597 5598 5598 5598 5598 5598 5598 5599 5599 5599 5599 5600 5600 5600 5600 5601 5601 5601 5602 5602 5602 5603 5603 5604 5605 5606 5606 5607
5578 5579 5580 5580 5580 5581 5581 5582 5582 5583 5583 5583 5583 5583 5582 5582 5583 5584 5584 5584 5584 5585 5585 5585 5586 5587 5587 5588 5587 5588 5588 5588 5587 5587 5587 5588 5588 5589 5590 5590 5590 5590 5591 5591 5591 5591 5591 5591 5591 5591 5592 5592 5593 5593 5594 5594 5594 5594 5594 5595 5595 5595 5595 5595 5596 5596 5596 5596 5597 5597 5597 5597 5597 5598 5598 5599 5599 5600 5600 5601 5601 5602 5603 5603 5604 5605
5572 5574 5574 5575 5575 5575 5575 5576 5577 5578 5578 5577 5577 5577 5577 5577 5578 5579 5579 5579 5580 5580 5580 5581 5581 5582 5583 5583 5583 5583 5584 5584 5583 5583 5583 5584 5584 5585 5586 5587 5587 5587 5587 5587 5587 5587 5587 5587 5587 5588 5589 5589 5590 5590 5590 5591 5591 5591 5591 5592 5592 5592 5592 5592 5592 5593 5593 5593 5593 5594 5594 5594 5595 5595 5596 5596 5597 5597 5597 5598 5599 5600 5600 5601 5602 5602
5567 5567 5568 5569 5569 5569 5569 5570 5572 5572 5572 5572 5572 5572 5572 5573 5573 5573 5574 5574 5575 5575 5575 5576 5577 5577 5578 5579 5579 5579 5579 5580 5579 5579 5579 5580 5580 5581 5582 5583 5583 5583 5583 5583 5584 5584 5584 5584 5584 5585 5585 5586 5586 5587 5587 5587 5588 5588 5588 5588 5588 5589 5589 5589 5589 5590 5590 5590 5591 5591 5591 5592 5592 5592 5593 5593 5594 5594 5595 5596 5597 5597 5598 5599 5599 5600
5561 5562 5562 5563 5563 5563 5564 5565 5565 5566 5566 5567 5567 5567 5567 5568 5568 5568 5568 5569 5570 5570 5570 5571 5572 5573 5574 5574 5574 5574 5575 5575 5575 5575 5575 5576 5576 5577 5579 5579 5579 5579 5580 5580 5580 5580 5580 5580 5581 5581 5582 5582 5583 5583 5584 5584 5585 5585 5585 5585 5586 5586 5586 5586 5586 5587 5587 5587 5588 5588 5588 5589 5589 5590 5590 5591 5591 5592 5592 5593 5594 5595 5595 5596 5597 5598
5555 5556 5556 5557 5557 5557 5558 5559 5559 5559 5560 5561 5562 5562 5562 5562 5563 5563 5563 5564 5564 5565 5566 5567 5567 5568 5569 5569 5570 5570 5570 5571 5571 5571 5571 5572 5572 5573 5575 5576 5576 5576 5576 5576 5576 5576 5576 5577 5577 5578 5578 5579 5580 5580 5581 5581 5582 5582 5582 5582 5582 5583 5583 5583 5583 5584 5584 5585 5585 5585 5586 5586 5587 5587 5587 5588 5589 5589 5590 5591 5592 5592 5593 5594 5595 5596
5548 5549 5550 5550 5550 5551 5552 5552 5553 5554 5555 5555 5556 5556 5556 5557 5557 5557 5557 5558 5559 5560 5561 5562 5562 5563 5564 5565 5566 5566 5566 5566 5567 5567 5567 5567 5568 5569 5571 5572 5572 5572 5572 5572 5572 5573 5573 5573 5574 5575 5575 5576 5576 5577 5577 5578 5578 5579 5579 5579 5579 5580 5580 5580 5580 5581 5581 5582 5582 5582 5583 5583 5584 5584 5585 5585 5586 5587 5587 5588 5589 5590 5591 5592 5592 5593
5542 5542 5543 5543 5544 5545 5545 5546 5547 5548 5549 5549 5550 5550 5551 5551 5551 5552 5552 5553 5554 5555 5556 5557 5557 5557 5558 5560 5561 5561 5561 5562 5563 5563 5563 5563 5564 5565 5566 5567 5568 5568 5568 5569 5569 5569 5569 5570 5571 5571 5572 5572 5573 5573 5574 5574 5575 5575 5576 5576 5576 5577 5577 5577 5577 5578 5578 5579 5579 5580 5580 5581 5581 5582 5582 5583 5583 5584 5585 5586 5587 5587 5588 5589 5590 5591
5535 5536 5537 5537 5538 5538 5539 5540 5541 5542 5543 5543 5544 5544 5545 5545 5546 5547 5547 5548 5549 5550 5551 5551 5552 5552 5554 5555 5556 5557 5557 5557 5558 5558 5559 5559 5560 5561 5562 5563 5564 5565 5565 5565 5566 5566 5566 5567 5567 5568 5569 5569 5570 5570 5571 5571 5572 5572 5572 5573 5573 5573 5573 5574 5574 5575 5575 5576 5576 5577 5577 5578 5578 5579 5580 5580 5581 5582 5582 5583 5584 5585 5586 5587 5587 5588
5528 5529 5530 5531 5531 5532 5533 5534 5535 5536 5537 5537 5538 5538 5539 5540 5541 5541 5542 5542 5544 5545 5545 5545 5546 5547 5549 5550 5551 5552 5552 5553 5553 5554 5555 5556 5556 5556 5557 5559 5560 5561 5561 5562 5562 5562 5563 5563 5564 5565 5565 5566 5566 5567 5567 5568 5568 5568 5569 5569 5570 5570 5570 5571 5571 5572 5572 5573 5573 5574 5575 5575 5576 5576 5577 5577 5578 5579 5580 5581 5582 5582 5583 5584 5585 5585
5521 5522 5523 5524 5525 5525 5526 5527 5528 5529 5530 5531 5532 5532 5533 5534 5535 5536 5536 5537 5539 5540 5539 5540 5541 5542 5543 5544 5545 5547 5548 5548 5548 5549 5551 5552 5552 5552 5553 5555 5556 5557 5557 5558 5558 5559 5560 5560 5561 5561 5562 5562 5563 5563 5564 5564 5565 5565 5566 5566 5567 5567 5567 5568 5568 5569 5569 5570 5571 5571 5572 5572 5573 5574 5574 5575 5576 5577 5577 5578 5579 5580 5581 5582 5582 5583
5513 5515 5516 5517 5518 5519 5520 5521 5522 5523 5524 5525 5526 5526 5527 5528 5529 5530 5530 5532 5533 5533 5533 5534 5536 5537 5538 5539 5540 5541 5542 5543 5544 5545 5546 5547 5547 5548 5550 5551 5552 5552 5554 5554 5555 5555 5556 5557 5557 5558 5558 5559 5559 5560 5560 5561 5561 5562 5562 5563 5563 5564 5564 5565 5565 5566 5567 5567 5568 5568 5569 5570 5570 5571 5572 5572 5573 5574 5575 5576 5577 5577 5578 5579 5580 5580
5505 5507 5508 5509 5511 5512 5513 5514 5515 5516 5517 5518 5519 5520 5521 5522 5523 5525 5525 5526 5527 5527 5528 5529 5530 5532 5533 5534 5535 5536 5537 5538 5539 5541 5542 5542 5542 5544 5546 5547 5548 5548 5550 5550 5551 5552 5552 5553 5554 5555 5555 5555 5556 5556 5557 5557 5558 5558 5559 5559 5560 5561 5561 5562 5562 5563 5564 5564 5565 5566 5566 5567 5568 5569 5569 5570 5571 5572 5573 5573 5574 5575 5576 5577 5577 5578
5497 5500 5501 5502 5503 5504 5506 5507 5508 5509 5511 5512 5513 5514 5515 5516 5517 5519 5519 5520 5521 5522 5523 5524 5525 5526 5528 5529 5530 5531 5532 5533 5535 5536 5537 5538 5538 5539 5542 5543 5543 5544 5546 5546 5547 5547 5549 5550 5551 5551 5552 5552 5552 5553 5553 5554 5554 5555 5556 5556 5557 5557 5558 5559 5559 5560 5561 5562 5562 5563 5564 5564 5565 5566 5567 5568 5569 5570 5570 5571 5572 5573 5574 5575 5575 5576
5490 5492 5493 5495 5496 5497 5499 5500 5501 5502 5504 5505 5506 5508 5509 5511 5512 5513 5513 5515 5516 5517 5517 5518 5519 5521 5522 5523 5525 5526 5527 5528 5530 5531 5532 5533 5534 5535 5538 5539 5539 5541 5542 5543 5543 5544 5545 5546 5547 5548 5548 5548 5549 5549 5550 5551 5551 5552 5552 5553 5554 5554 5555 5556 5557 5557 5558 5559 5560 5560 5561 5562 5563 5564 5565 5566 5567 5567 5568 5569 5570 5571 5572 5572 5573 5574
5482 5483 5485 5487 5488 5490 5491 5493 5494 5496 5497 5498 5500 5501 5503 5505 5506 5507 5508 5509 5510 5511 5512 5513 5514 5515 5517 5518 5519 5521 5522 5523 5524 5525 5527 5528 5530 5532 5534 5535 5536 5537 5538 5539 5540 5541 5542 5542 5543 5544 5545 5545 5546 5546 5547 5547 5548 5549 5549 5550 5551 5552 5552 5553 5554 5554 5555 5556 5557 5558 5558 5559 5560 5561 5562 5563 5564 5565 5566 5567 5568 5569 5569 5570 5571 5572
5473 5476 5477 5479 5481 5482 5484 5486 5487 5489 5490 5492 5493 5495 5497 5498 5500 5501 5502 5503 5504 5505 5506 5507 5508 5509 5511 5512 5514 5516 5517 5519 5519 5521 5522 5524 5526 5527 5530 5531 5532 5533 5535 5536 5537 5537 5538 5539 5540 5541 5541 5542 5542 5543 5543 5544 5545 5546 5547 5547 5548 5549 5549 5550 5551 5552 5552 5553 5554 5555 5556 5557 5558 5559 5560 5561 5562 5563 5564 5565 5566 5567 5567 5568 5569 5570
5466 5467 5470 5472 5473 5475 5477 5478 5480 5482 5484 5485 5487 5488 5490 5492 5493 5495 5496 5497 5498 5499 5500 5501 5502 5504 5506 5507 5509 5510 5512 5514 5515 5516 5518 5520 5522 5524 5526 5527 5528 5530 5531 5532 5533 5534 5535 5536 5536 5537 5537 5538 5539 5540 5540 5541 5542 5542 5543 5544 5545 5546 5547 5547 5548 5549 5550 5551 5552 5552 5553 5554 5555 5556 5557 5558 5559 5560 5562 5562 5564 5565 5566 5567 5568 5569
5457 5460 5462 5464 5466 5468 5470 5471 5473 5475 5477 5479 5480 5482 5484 5485 5487 5488 5490 5491 5493 5494 5495 5495 5497 5498 5500 5502 5504 5506 5507 5509 5511 5512 5514 5516 5518 5520 5522 5523 5525 5526 5527 5528 5529 5530 5531 5532 5533 5533 5534 5535 5536 5537 5537 5538 5539 5540 5540 5541 5542 5543 5544 5544 5545 5546 5547 5548 5549 5550 5551 5552 5553 5554 5555 5556 5557 5558 5560 5561 5562 5563 5564 5565 5566 5567
5450 5452 5454 5457 5459 5461 5462 5464 5466 5468 5470 5472 5474 5475 5477 5478 5480 5482 5483 5485 5487 5488 5489 5490 5492 5493 5495 5497 5499 5501 5503 5505 5507 5508 5510 5512 5514 5516 5518 5520 5521 5522 5523 5524 5525 5527 5527 5528 5529 5530 5531 5532 5532 5533 5534 5535 5536 5537 5537 5538 5539 5540 5541 5542 5542 5543 5544 5545 5546 5547 5548 5549 5551 5552 5553 5554 5555 5556 5558 5559 5560 5561 5562 5563 5565 5566
5442 5445 5447 5449 5452 5454 5456 5457 5459 5461 5463 5465 5467 5468 5470 5472 5473 5475 5477 5478 5481 5482 5483 5485 5487 5488 5490 5492 5495 5497 5499 5501 5503 5505 5507 5509 5511 5512 5514 5516 5517 5518 5519 5521 5522 5523 5524 5525 5525 5526 5527 5528 5529 5530 5531 5532 5533 5534 5535 5536 5536 5537 5538 5539 5540 5541 5542 5543 5544 5545 5546 5547 5548 5550 5551 5552 5553 5554 5556 5557 5558 5559 5561 5562 5563 5565
5435 5438 5441 5442 5445 5447 5448 5450 5452 5454 5456 5458 5460 5462 5463 5465 5467 5469 5471 5472 5474 5477 5479 5480 5482 5484 5486 5488 5490 5493 5495 5498 5500 5502 5504 5506 5507 5509 5511 5512 5513 5515 5516 5517 5518 5519 5520 5521 5522 5523 5524 5525 5526 5527 5528 5529 5530 5531 5532 5533 5534 5534 5535 5536 5537 5538 5539 5540 5542 5542 5544 5545 5546 5547 5549 5550 5551 5552 5553 5555 5556 5558 5559 5560 5562 5563
5428 5432 5434 5436 5438 5440 5442 5443 5445 5447 5449 5452 5453 5455 5457 5458 5460 5462 5464 5467 5469 5472 5474 5477 5478 5480 5482 5484 5487 5489 5492 5494 5497 5498 5500 5502 5503 5505 5507 5508 5510 5511 5512 5513 5515 5516 5517 5518 5519 5520 5521 5522 5522 5524 5525 5526 5527 5528 5529 5530 5531 5532 5533 5534 5535 5536 5537 5538 5539 5540 5542 5543 5544 5545 5547 5548 5549 5550 5552 5553 5554 5556 5557 5559 5560 5562
5422 5425 5427 5429 5431 5433 5435 5436 5438 5441 5443 5445 5447 5449 5450 5452 5454 5456 5458 5461 5463 5467 5470 5472 5475 5476 5478 5481 5483 5486 5489 5491 5493 5495 5497 5498 5500 5502 5503 5504 5506 5507 5508 5510 5511 5512 5514 5515 5516 5517 5518 5519 5520 5521 5522 5523 5524 5525 5526 5527 5528 5529 5530 5531 5532 5533 5534 5536 5537 5538 5539 5541 5542 5543 5545 5546 5547 5548 5550 5551 5553 5554 5556 5557 5559 5560
5416 5418 5420 5422 5425 5427 5428 5430 5432 5435 5437 5439 5441 5442 5444 5446 5448 5451 5453 5456 5458 5461 5465 5468 5471 5473 5475 5478 5481 5483 5486 5488 5490 5492 5493 5495 5497 5498 5499 5501 5502 5503 5505 5507 5508 5509 5510 5511 5512 5513 5515 5516 5517 5518 5519 5521 5522 5523 5524 5525 5526 5527 5528 5529 5530 5531 5532 5533 5535 5536 5537 5539 5540 5541 5543 5544 5545 5547 5548 5550 5551 5553 5554 5556 5557 5558
5409 5411 5414 5416 5418 5420 5422 5424 5427 5428 5431 5432 5434 5436 5438 5441 5443 5445 5447 5450 5453 5457 5461 5464 5467 5470 5473 5476 5478 5481 5483 5485 5487 5488 5490 5492 5493 5495 5496 5497 5499 5500 5502 5503 5505 5506 5507 5508 5509 5511 5512 5513 5514 5515 5516 5517 5519 5520 5521 5522 5523 5524 5525 5527 5528 5529 5530 5531 5532 5534 5535 5537 5538 5539 5541 5542 5544 5545 5547 5548 5550 5551 5552 5554 5555 5557
5402 5405 5407 5410 5412 5414 5417 5419 5421 5422 5425 5427 5428 5431 5433 5435 5437 5440 5442 5446 5450 5454 5458 5461 5464 5467 5470 5473 5475 5478 5480 5482 5483 5485 5487 5488 5490 5491 5493 5494 5496 5497 5498 5500 5501 5502 5504 5505 5507 5508 5509 5511 5512 5512 5513 5515 5516 5517 5519 5520 5521 5522 5523 5524 5526 5527 5528 5529 5531 5532 5533 5535 5536 5538 5539 5541 5542 5543 5545 5547 5548 5549 5551 5552 5554 5555
5397 5399 5402 5405 5407 5409 5412 5413 5415 5417 5419 5421 5423 5426 5428 5430 5432 5435 5438 5442 5447 5451 5454 5457 5461 5464 5467 5469 5472 5474 5477 5478 5480 5482 5483 5485 5487 5488 5490 5491 5492 5494 5495 5497 5498 5500 5501 5502 5504 5505 5506 5507 5508 5510 5511 5512 5514 5515 5516 5517 5519 5520 5521 5522 5523 5524 5526 5527 5528 5530 5531 5533 5534 5536 5537 5539 5541 5542 5543 5545 5547 5548 5549 5551 5552 5554
5391 5394 5397 5399 5402 5404 5405 5407 5409 5412 5414 5416 5418 5421 5423 5426 5428 5431 5435 5440 5444 5448 5451 5454 5457 5460 5462 5465 5468 5471 5473 5475 5477 5478 5480 5482 5483 5485 5487 5488 5489 5491 5492 5494 5495 5497 5498 5500 5501 5502 5503 5504 5506 5507 5509 5510 5511 5512 5514 5515 5517 5517 5519 5520 5521 5522 5524 5525 5527 5528 5530 5531 5533 5534 5536 5538 5539 5541 5542 5543 5545 5547 5548 5549 5551 5552
5386 5389 5392 5394 5396 5398 5400 5402 5404 5407 5409 5411 5413 5416 5419 5422 5425 5428 5433 5437 5441 5444 5447 5451 5454 5457 5459 5462 5465 5467 5469 5471 5473 5475 5477 5479 5480 5482 5483 5485 5487 5488 5489 5491 5492 5494 5495 5497 5498 5499 5501 5502 5503 5505 5507 5508 5509 5510 5512 5513 5514 5516 5517 5518 5520 5521 5522 5524 5525 5527 5528 5530 5531 5533 5535 5537 5538 5539 5541 5542 5543 5545 5547 5548 5549 5551
5381 5384 5386 5389 5391 5393 5395 5397 5400 5402 5404 5406 5409 5412 5415 5418 5422 5426 5431 5434 5437 5441 5444 5447 5450 5453 5456 5459 5462 5464 5466 5468 5470 5472 5474 5476 5478 5479 5481 5482 5484 5485 5487 5488 5490 5491 5492 5494 5495 5497 5498 5500 5501 5502 5504 5506 5507 5508 5510 5511 5512 5514 5515 5517 5518 5519 5521 5522 5524 5525 5527 5528 5530 5532 5533 5535 5537 5538 5539 5541 5542 5543 5545 5546 5548 5549
5376 5379 5381 5384 5386 5389 5391 5393 5396 5397 5400 5402 5405 5409 5412 5416 5420 5424 5427 5431 5434 5437 5440 5443 5446 5449 5452 5455 5458 5461 5463 5465 5467 5469 5472 5473 5475 5477 5478 5480 5481 5482 5484 5486 5487 5488 5490 5492 5493 5494 5496 5497 5499 5501 5502 5503 5505 5506 5508 5509 5511 5512 5513 5515 5516 5517 5519 5521 5522 5524 5526 5527 5529 5530 5532 5534 5535 5537 5538 5539 5541 5542 5543 5545 5546 5547
5372 5375 5377 5380 5382 5385 5387 5389 5392 5394 5396 5399 5402 5406 5410 5414 5417 5421 5424 5427 5431 5434 5437 5440 5443 5447 5450 5452 5455 5458 5460 5462 5464 5467 5468 5470 5472 5474 5475 5477 5478 5480 5482 5483 5485 5486 5488 5489 5491 5492 5494 5495 5497 5499 5500 5502 5503 5504 5506 5507 5509 5510 5512 5513 5515 5516 5518 5519 5521 5523 5524 5526 5527 5529 5531 5532 5534 5535 5537 5538 5539 5541 5542 5543 5544 5546
5368 5371 5374 5377 5379 5382 5384 5387 5389 5391 5393 5397 5400 5404 5407 5411 5414 5418 5421 5425 5428 5432 5435 5438 5441 5444 5447 5450 5452 5455 5457 5459 5462 5463 5466 5467 5469 5471 5473 5474 5476 5477 5479 5480 5482 5484 5485 5487 5489 5490 5492 5493 5495 5497 5498 5500 5502 5503 5504 5506 5507 5509 5510 5512 5513 5515 5517 5518 5520 5522 5523 5525 5526 5528 5529 5531 5532 5533 5535 5537 5538 5539 5540 5541 5542 5544